Weather reports worldwide

Advertisment
Blomskog, Sweden (2408): temperature & dewpoint: 06.12.2019 16:00:00 - 12.12.2019 16:00:00 (CET)Blomskog, Sweden (2408): wind speed & gusts: 06.12.2019 16:00:00 - 12.12.2019 16:00:00 (CET)Blomskog, Sweden (2408): wind direction: 06.12.2019 16:00:00 - 12.12.2019 16:00:00 (CET)Blomskog, Sweden (2408): reduced air pressure: 06.12.2019 16:00:00 - 12.12.2019 16:00:00 (CET)Blomskog, Sweden (2408): visibility: 06.12.2019 16:00:00 - 12.12.2019 16:00:00 (CET)Blomskog, Sweden (2408): precipitation: 06.12.2019 16:00:00 - 12.12.2019 16:00:00 (CET)
Date & Time tt [°C] td [°C] ff [km/h] ff [kn] fx [km/h] fx [kn] dd ppp [hPa] vv [km] rr [mm]
12.12.2019 16:00:00 2,9 2,8 0 0 19 10 N 992,8 17 0,3
12.12.2019 15:00:00 3,1 3,0 0 0 0 0 N 993,4 8 0,0
12.12.2019 14:00:00 3,3 3,2 0 0 4 2 N 993,8 16 0,0
12.12.2019 13:00:00 3,3 3,2 0 0 1 1 N 994,5 13 0,0
12.12.2019 12:00:00 3,1 3,0 0 0 0 0 N 995,2 13 0,0
12.12.2019 11:00:00 3,2 3,1 0 0 2 1 N 996,0 13 0,0
12.12.2019 10:00:00 2,9 2,8 0 0 0 0 N 996,6 12 0,0
12.12.2019 09:00:00 3,0 2,9 0 0 2 1 N 996,8 11 0,0
12.12.2019 08:00:00 3,3 3,2 0 0 2 1 N 996,7 10 0,0
12.12.2019 07:00:00 3,5 3,4 0 0 3 2 N 996,8 10 0,0
12.12.2019 06:00:00 3,7 3,6 0 0 2 1 N 996,8 10 0,0
12.12.2019 05:00:00 3,8 3,7 0 0 3 2 N 997,1 10 0,0
12.12.2019 04:00:00 3,7 3,6 0 0 3 1 N 997,6 10 0,0
12.12.2019 03:00:00 3,8 3,7 0 0 5 3 N 998,1 - 0,0
12.12.2019 02:00:00 3,9 3,8 0 0 3 2 N 998,4 9 0,0
12.12.2019 01:00:00 3,9 3,8 0 0 1 1 N 998,8 10 0,0
12.12.2019 00:00:00 3,6 3,5 0 0 0 0 N 999,4 10 0,0
11.12.2019 23:00:00 2,9 2,8 0 0 4 2 N 999,3 11 0,0
11.12.2019 22:00:00 3,5 3,4 0 0 2 1 N 999,5 11 0,1
11.12.2019 21:00:00 3,5 3,4 0 0 0 0 N 999,7 11 0,0
11.12.2019 20:00:00 3,5 3,4 0 0 25 13 N 999,4 13 0,2
11.12.2019 19:00:00 4,0 3,9 4 2 27 15 SSW 999,6 7 0,2
11.12.2019 18:00:00 4,1 4,0 0 0 4 2 N 999,7 16 0,1
11.12.2019 17:00:00 4,8 4,7 0 0 4 2 N 999,4 13 0,0
11.12.2019 16:00:00 4,7 4,2 0 0 5 3 N 999,1 12 0,0
11.12.2019 15:00:00 5,1 3,9 0 0 4 2 N 998,7 13 0,0
11.12.2019 14:00:00 5,7 4,2 0 0 4 2 N 998,3 13 0,0
11.12.2019 13:00:00 6,0 4,6 0 0 12 6 N 998,0 13 0,0
11.12.2019 12:00:00 5,9 5,0 0 0 11 6 N 997,8 12 0,0
11.12.2019 11:00:00 5,9 5,3 0 0 6 3 N 997,4 11 0,0
11.12.2019 10:00:00 5,0 4,8 0 0 16 8 N 996,6 14 0,0
11.12.2019 09:00:00 5,1 5,0 0 0 29 16 N 995,6 18 0,0
11.12.2019 08:00:00 5,6 5,5 3 2 31 17 SW 994,2 19 0,0
11.12.2019 07:00:00 4,6 4,5 0 0 38 20 N 993,3 29 1,3
11.12.2019 06:00:00 3,4 3,3 0 0 31 17 N 993,0 13 1,5
11.12.2019 05:00:00 2,3 2,2 11 6 38 21 S 993,2 7 2,3
11.12.2019 04:00:00 2,6 2,5 5 3 33 18 S 994,1 6 1,2
11.12.2019 03:00:00 1,8 1,7 8 4 34 18 SSE 995,0 3,6 1,0
11.12.2019 02:00:00 1,1 1,0 11 6 29 16 SSE 996,8 4,6 1,7
11.12.2019 01:00:00 1,2 1,1 9 5 34 18 SSE 998,3 4,8 0,9
11.12.2019 00:00:00 1,2 1,1 10 5 36 20 S 1000,0 5 0,5
10.12.2019 23:00:00 1,4 1,3 7 4 33 18 SSE 1001,2 19 0,3
10.12.2019 22:00:00 1,1 1,0 4 2 27 15 SSE 1003,1 23 0,0
10.12.2019 21:00:00 0,8 0,7 6 3 25 13 SSE 1004,8 35 0,0
10.12.2019 20:00:00 0,4 0,3 2 1 22 12 SE 1006,5 50 0,0
10.12.2019 19:00:00 -0,4 -0,5 0 0 16 9 N 1008,0 50 0,0
10.12.2019 18:00:00 -0,8 -0,9 0 0 19 10 N 1009,3 50 0,0
10.12.2019 17:00:00 -1,4 -1,7 4 2 16 8 SSE 1010,8 50 0,0
10.12.2019 16:00:00 -2,0 -2,5 0 0 8 5 N 1012,0 50 0,0
10.12.2019 15:00:00 -2,2 -2,6 0 0 11 6 N 1013,0 50 0,0
10.12.2019 14:00:00 -2,4 -2,7 0 0 13 7 N 1014,0 50 0,0
10.12.2019 13:00:00 -3,4 -3,5 0 0 4 2 N 1014,4 50 0,0
10.12.2019 12:00:00 -5,0 -5,1 0 0 2 1 N 1014,9 50 0,0
10.12.2019 11:00:00 -6,4 -6,5 0 0 - - N 1015,2 49 0,0
10.12.2019 10:00:00 -8,1 -8,2 0 0 - - N 1015,4 50 0,0
10.12.2019 09:00:00 -8,3 -8,4 0 0 0 0 N 1015,0 29 0,0
10.12.2019 08:00:00 -8,0 -8,1 0 0 5 3 N 1014,7 50 0,0
10.12.2019 07:00:00 -8,1 -8,6 0 0 4 2 N 1013,6 50 0,0
10.12.2019 06:00:00 -6,5 -6,6 0 0 9 5 N 1012,7 50 0,0
10.12.2019 05:00:00 -5,3 -5,4 6 4 12 6 NW 1011,8 50 0,0
10.12.2019 04:00:00 -5,3 -5,4 0 0 9 5 N 1011,0 50 0,0
10.12.2019 03:00:00 -5,6 -5,7 0 0 7 4 N 1009,7 50 0,0
10.12.2019 02:00:00 -5,9 -6,0 0 0 2 1 N 1008,7 50 0,0
10.12.2019 01:00:00 -4,7 -4,8 0 0 10 5 N 1007,4 50 0,0
10.12.2019 00:00:00 -3,7 -3,8 0 0 14 8 N 1005,3 50 0,0
09.12.2019 23:00:00 -3,5 -3,6 0 0 16 9 N 1003,7 50 0,0
09.12.2019 22:00:00 -2,6 -2,7 0 0 17 9 N 1001,7 50 0,0
09.12.2019 21:00:00 -2,1 -2,2 4 2 19 10 NW 999,2 50 0,0
09.12.2019 20:00:00 -1,4 -1,5 5 3 24 13 NNW 996,5 50 0,0
09.12.2019 19:00:00 -1,2 -1,3 6 3 22 12 NNW 994,2 50 0,0
09.12.2019 18:00:00 -1,0 -1,1 5 3 23 12 NNW 991,8 50 0,0
09.12.2019 17:00:00 -0,7 -0,8 6 3 24 13 N 989,8 50 0,1
09.12.2019 16:00:00 -0,5 -0,7 10 6 34 18 N 987,9 0,8 1,0
09.12.2019 15:00:00 0,0 -0,1 11 6 34 18 NNE 985,2 0,8 1,8
09.12.2019 14:00:00 0,7 0,6 10 5 29 16 NNE 983,1 2,6 1,3
09.12.2019 13:00:00 5,1 5,0 0 0 6 3 N 980,9 23 0,2
09.12.2019 12:00:00 5,0 4,9 0 0 11 6 N 980,0 7 0,3
09.12.2019 11:00:00 5,1 5,0 0 0 7 4 N 979,4 11 0,1
09.12.2019 10:00:00 5,7 4,2 0 0 17 9 N 978,9 16 0,0
09.12.2019 09:00:00 5,9 4,2 0 0 16 9 N 978,2 20 0,0
09.12.2019 08:00:00 5,9 3,9 0 0 32 17 N 977,5 24 0,0
09.12.2019 07:00:00 5,7 4,3 0 0 16 9 N 976,9 17 0,0
09.12.2019 06:00:00 5,2 5,1 0 0 19 10 N 976,4 15 0,3
09.12.2019 05:00:00 5,4 4,4 9 5 32 17 WSW 976,2 12 0,1
09.12.2019 04:00:00 5,6 3,6 2 1 29 16 WSW 975,8 28 0,0
09.12.2019 03:00:00 5,6 3,6 3 2 26 14 WSW 975,3 27 0,0
09.12.2019 02:00:00 5,3 3,3 3 2 37 20 WSW 975,1 19 0,0
09.12.2019 01:00:00 5,5 3,5 3 2 31 17 WSW 975,2 18 0,0
09.12.2019 00:00:00 5,3 3,3 3 2 34 18 WSW 975,1 21 0,0
08.12.2019 23:00:00 5,3 3,6 2 1 34 18 WSW 974,6 14 0,0
08.12.2019 22:00:00 5,4 3,3 3 2 31 17 WSW 974,6 15 0,0
08.12.2019 21:00:00 5,5 3,2 4 2 40 21 WSW 974,6 17 0,0
08.12.2019 20:00:00 5,4 4,2 6 3 32 18 WSW 974,4 15 0,0
08.12.2019 19:00:00 4,8 3,6 0 0 31 17 N 974,5 22 0,0
08.12.2019 18:00:00 4,9 3,6 0 0 34 18 N 974,4 25 0,0
08.12.2019 17:00:00 5,2 4,9 0 0 29 16 N 973,9 32 0,0
08.12.2019 16:00:00 6,0 5,8 6 3 42 23 WSW 972,8 45 0,0
08.12.2019 15:00:00 6,8 6,7 6 3 36 19 WSW 971,7 30 0,7
08.12.2019 14:00:00 7,1 7,0 10 5 31 17 WSW 971,0 3,6 1,3
08.12.2019 13:00:00 6,9 6,8 0 0 14 8 N 971,6 13 0,7
08.12.2019 12:00:00 3,8 3,7 0 0 10 6 N 973,5 1,9 1,1
08.12.2019 11:00:00 3,6 3,5 0 0 19 11 N 975,2 5 1,2
08.12.2019 10:00:00 2,9 2,8 10 5 24 13 SE 977,3 7 1,7
08.12.2019 09:00:00 1,2 1,1 9 5 24 13 ESE 980,2 7 1,1
08.12.2019 08:00:00 0,3 0,2 6 3 20 11 ESE 983,1 15 1,6
08.12.2019 07:00:00 -0,5 -0,6 0 0 10 5 N 986,3 1,1 1,3
08.12.2019 06:00:00 -1,2 -1,3 0 0 5 3 N 988,9 2,5 0,5
08.12.2019 05:00:00 -1,4 -1,5 0 0 - - N 990,9 50 0,0
08.12.2019 04:00:00 -2,8 -3,0 0 0 - - N 992,4 50 0,0
08.12.2019 03:00:00 -3,5 -3,6 0 0 - - N 993,7 50 0,0
08.12.2019 02:00:00 -2,6 -2,7 0 0 - - N 994,7 50 0,0
08.12.2019 01:00:00 -3,8 -3,9 0 0 - - N 995,7 50 0,0
08.12.2019 00:00:00 -3,3 -3,6 0 0 0 0 N 996,4 50 0,0
07.12.2019 23:00:00 -2,3 -3,1 0 0 5 3 N 996,2 50 0,0
07.12.2019 22:00:00 -2,5 -2,7 0 0 1 1 N 996,6 50 0,0
07.12.2019 21:00:00 -1,3 -2,1 0 0 4 2 N 996,5 50 0,0
07.12.2019 20:00:00 -2,1 -2,2 0 0 0 0 N 996,2 50 0,0
07.12.2019 19:00:00 -0,9 -1,9 0 0 14 7 N 995,7 50 0,0
07.12.2019 18:00:00 0,2 -2,3 6 3 13 7 WNW 995,2 50 0,0
07.12.2019 17:00:00 -0,2 -0,9 4 2 11 6 WNW 994,3 50 0,0
07.12.2019 16:00:00 -1,1 -1,2 3 1 6 3 W 993,3 50 0,0
07.12.2019 15:00:00 1,3 1,2 4 2 13 7 WNW 992,2 50 0,0
07.12.2019 14:00:00 1,8 1,5 4 2 12 7 WNW 991,4 50 0,0
07.12.2019 13:00:00 2,1 2,0 6 3 14 8 WNW 990,7 50 0,0
07.12.2019 12:00:00 2,3 2,2 7 4 21 12 NW 989,7 50 0,0
07.12.2019 11:00:00 2,4 2,3 6 3 14 7 W 989,2 30 0,0
07.12.2019 10:00:00 2,4 2,3 6 4 17 9 WNW 988,7 50 0,0
07.12.2019 09:00:00 3,0 2,9 6 4 22 12 WNW 987,4 50 0,1
07.12.2019 08:00:00 3,7 3,6 6 4 20 11 WNW 986,3 1,8 0,3
07.12.2019 07:00:00 4,9 4,8 5 3 14 8 W 985,4 3,9 0,4
07.12.2019 06:00:00 4,8 4,7 3 2 7 4 W 985,1 0,4 0,1
07.12.2019 05:00:00 4,8 4,7 4 2 8 5 WNW 984,9 0,5 0,3
07.12.2019 04:00:00 4,6 4,4 0 0 6 3 N 984,4 0,5 0,4
07.12.2019 03:00:00 5,0 4,9 0 0 4 2 N 984,2 6 0,5
07.12.2019 02:00:00 5,6 5,5 0 0 9 5 N 984,7 19 2,0
07.12.2019 01:00:00 5,6 5,5 0 0 4 2 N 985,1 3,2 2,7
07.12.2019 00:00:00 5,6 5,5 0 0 5 3 N 985,6 4,9 1,7
06.12.2019 23:00:00 5,7 5,6 3 2 6 3 E 986,3 4,0 0,5
06.12.2019 22:00:00 5,5 5,3 3 1 5 3 ESE 987,2 1,2 0,4
06.12.2019 21:00:00 5,3 5,2 0 0 4 2 N 987,9 1,2 0,8
06.12.2019 20:00:00 4,8 4,7 0 0 3 2 N 988,5 1,4 1,9
06.12.2019 19:00:00 5,0 4,9 0 0 3 1 N 988,9 7 1,3
06.12.2019 18:00:00 5,1 5,0 0 0 9 5 N 989,2 11 0,4
06.12.2019 17:00:00 5,5 5,4 5 3 10 6 WSW 989,4 25 0,7
06.12.2019 16:00:00 5,7 5,6 5 3 18 10 W 989,6 18 0,4

tt = temperature
td = dewpoint
ff = wind speed
fx = gusts
dd = wind direction
ppp = reduced air pressure
vv = visibility
rr = precipitation

Next stations